[[{"header":{"parameterUnit":"m.s-1","parameterCategory":1,"la1":30.2991,"la2":30.254,"lo1":-89.0895,"lo2":-89.0444,"dy":0.0017,"dx":0.0017,"nx":28,"ny":28,"refTime":"2024-11-29T03:00:00:Z","depth":0,"parameterNumber":2,"parameterNumberName":"U-component_of_WINDS"},"data":[0,0,0,0,0,0,0,0,0,0,0,0,0,0,0,0,0,0,0,0,0,0,0,0,0,0,0,0,0,0,0,0,0,0,0,0,0,0,0,0,0,0,0,0,0,0,0,0,0,0,0,0,0,0,0,0,0,0,-2.8549,-2.855,0,-2.8619,-2.862,-2.862,-2.852,-2.8516,-2.8513,-2.851,-2.8582,-2.8587,-2.8592,0,0,0,0,0,0,0,0,0,0,0,0,0,-2.833,-2.8335,-2.8549,-2.855,-2.8551,-2.8619,-2.862,-2.8621,-2.8521,-2.8516,-2.8512,-2.8508,-2.858,-2.8587,-2.8593,0,0,0,0,0,0,0,0,0,0,0,0,0,-2.8415,-2.8336,-2.8549,-2.8509,-2.8506,-2.8618,-2.862,-2.8621,-2.8522,-2.8516,-2.8511,-2.8506,-2.8578,-2.8586,-2.8594,-2.8749,0,0,-2.8618,-2.8621,0,0,0,0,0,0,0,0,-2.8411,-2.8423,-2.8514,-2.8512,-2.8509,-2.8555,-2.8569,-2.8664,-2.8523,-2.8516,-2.851,-2.8503,-2.8578,-2.8585,-2.861,-2.8752,-2.8755,-2.8618,-2.8623,-2.8627,-2.8629,0,0,0,0,0,0,0,-2.8405,-2.842,-2.8577,-2.8516,-2.8513,-2.8488,-2.8494,-2.8586,-2.8576,-2.8516,-2.8509,-2.8518,-2.8575,-2.8603,-2.8611,-2.8756,-2.8618,-2.8625,-2.863,-2.8633,-2.9028,-2.9033,0,0,0,0,0,0,-2.8404,-2.8416,-2.8575,-2.8579,-2.8446,-2.8496,-2.8503,-2.8546,-2.8574,-2.8574,-2.8523,-2.8514,-2.8592,-2.8602,-2.8613,-2.8796,-2.8627,-2.8634,-2.8638,-2.9022,-2.9029,-2.9035,0,0,0,0,0,0,-2.8399,-2.8419,-2.8572,-2.8495,-2.8513,-2.8506,-2.8554,-2.855,-2.8577,-2.858,-2.8577,-2.8553,-2.8588,-2.8602,-2.8715,-2.8798,-2.8637,-2.8645,-2.9015,-2.9024,-2.9032,-2.9165,0,0,0,0,0,0,-2.8393,-2.8418,-2.8477,-2.8497,-2.8517,-2.8674,-2.8559,-2.8555,-2.8591,-2.8579,-2.8607,-2.8607,-2.8585,-2.8704,-2.8723,-2.8806,-2.8651,-2.9008,-2.9019,-2.9029,-2.9153,-2.9177,-2.9197,0,0,0,0,0,-2.8386,-2.8512,-2.848,-2.85,-2.8591,-2.8679,-2.869,-2.8662,-2.8598,-2.8657,-2.8658,-2.8606,-2.8785,-2.8717,-2.8737,-2.8823,-2.9003,-2.9016,-2.9029,-2.9143,-2.9172,-2.9197,0,0,0,0,0,0,-2.8502,-2.8514,-2.8479,-2.8615,-2.8647,-2.8661,-2.8736,-2.8694,-2.8744,-2.8731,-2.8694,-2.8702,-2.8823,-2.8834,-2.8758,-2.8974,-2.8883,-2.8901,-2.8963,-2.8991,-2.9012,-2.9008,-2.8657,0,0,0,0,0,-2.8543,-2.8613,-2.862,-2.8739,-2.8757,-2.8744,-2.8781,-2.8756,-2.8787,-2.88,-2.8809,-2.8842,-2.8905,-2.8948,-2.9006,-2.9153,-2.9158,-2.9222,-2.9244,-2.9262,-2.9279,-2.9357,-2.9385,-2.9078,-2.9078,-2.9077,0,0,-2.863,-2.8645,-2.8692,-2.8763,-2.8784,-2.8858,-2.8756,-2.8838,-2.8892,-2.8813,-2.8921,-2.8928,-2.8962,-2.9093,-2.915,-2.9105,-2.9364,-2.9278,-2.9293,-2.93,-2.9373,-2.9402,-2.9428,-2.9087,-2.9085,-2.9084,0,0,-2.8826,-2.8844,-2.8945,-2.8968,-2.9001,-2.8991,-2.9016,-2.9037,-2.9039,-2.9146,-2.9088,-2.9151,-2.9261,-2.9287,-2.9315,-2.9518,-2.9472,-2.9538,-2.9655,-2.9731,-2.9756,-2.9777,-2.985,-2.9877,-2.9554,-2.9554,-2.9555,0,-2.893,-2.9038,-2.9003,-2.9089,-2.9122,-2.9052,-2.9155,-2.9179,-2.923,-2.9255,-2.9202,-2.9338,-2.9356,-2.9492,-2.9541,-2.9565,-2.9592,-2.9536,-2.9755,-2.9776,-2.9795,-2.9865,-2.9893,-2.9562,-2.9561,-2.9561,-2.956,0,-2.9164,-2.924,-2.9318,-2.9368,-2.941,-2.9504,-2.9483,-2.9529,-2.95,-2.9496,-2.9605,-2.9623,-2.9684,-2.9714,-2.9687,-2.9846,-2.9817,-2.976,-2.9669,-2.9833,-2.9898,-2.9924,-2.9574,-2.9571,-2.9568,-2.9566,0,0,-2.9439,-2.9466,-2.9496,-2.9517,-2.9548,-2.9606,-2.9696,-2.9754,-2.9795,-2.9831,-2.9907,-3.0,-2.9948,-2.9979,-2.9954,-3.0021,-3.0181,-2.9956,-2.9956,-2.9999,-3.0358,-3.0402,-3.0434,-3.0149,-3.0154,-3.0158,-3.0356,0,-2.9635,-2.9791,-2.9761,-2.9914,-2.9983,-2.9916,-2.9995,-3.0022,-3.0019,-3.0078,-3.0074,-3.0142,-3.0067,-3.0085,-3.0148,-3.0149,-3.0253,-3.0133,-3.022,-3.0224,-3.0216,-3.0468,-3.0515,-3.0701,-3.0381,-3.0385,-3.0388,0,-2.9886,-2.9931,-3.0091,-3.0109,-3.0137,-3.0208,-3.0259,-3.0315,-3.0344,-3.0337,-3.0371,-3.0333,-3.0422,-3.0327,-3.045,-3.0369,-3.0402,-3.0407,-3.0414,-3.0423,-3.0318,-3.0485,-3.0759,-3.0788,-3.0428,-3.0425,-3.0422,0,-3.0072,-3.0172,-3.028,-3.0301,-3.0324,-3.0376,-3.0388,-3.0411,-3.0448,-3.0492,-3.0515,-3.0569,-3.06,-3.0642,-3.0619,-3.0552,-3.0746,-3.0649,-3.0744,-3.0745,-3.0791,-3.0789,-3.1076,-3.0809,-3.0808,-3.0808,-3.0807,0,-3.0296,-3.0396,-3.0364,-3.0431,-3.0542,-3.0505,-3.0616,-3.062,-3.064,-3.0707,-3.0651,-3.0715,-3.0679,-3.074,-3.0722,-3.0827,-3.084,-3.0838,-3.0833,-3.0845,-3.0845,-3.0868,-3.0855,-3.0815,-3.0813,-3.0812,-3.0811,0,-3.0524,-3.0506,-3.062,-3.0632,-3.0637,-3.0718,-3.0728,-3.0791,-3.0782,-3.0867,-3.0885,-3.0873,-3.0941,-3.0921,-3.0995,-3.0983,-3.1116,-3.1093,-3.1107,-3.1102,-3.1199,-3.1191,-3.1513,-3.1553,-3.1258,-3.1261,-3.1263,0,-3.0669,-3.0745,-3.0764,-3.0805,-3.0821,-3.0886,-3.0923,-3.0889,-3.093,-3.0967,-3.1025,-3.1088,-3.1137,-3.125,-3.1247,-3.1304,-3.1283,-3.1391,-3.1291,-3.13,-3.1286,-3.1283,-3.1291,-3.1412,-3.1416,-3.1419,-3.1421,0,-3.0929,-3.0916,-3.0971,-3.1024,-3.1069,-3.1109,-3.1143,-3.1179,-3.1147,-3.1196,-3.1265,-3.1303,-3.1377,-3.1441,-3.1492,-3.1503,-3.1458,-3.1452,-3.1477,-3.1491,-3.1497,-3.1497,-3.1164,-3.1445,-3.1443,-3.1441,-3.144,-3.1439,-3.1122,-3.1186,-3.1209,-3.1272,-3.1294,-3.1327,-3.1386,-3.1385,-3.1441,-3.15,-3.1476,-3.1555,-3.158,-3.1643,-3.1662,-3.1723,-3.1682,-3.1718,-3.1727,-3.1737,-3.175,-3.1485,-3.1732,-3.1731,-3.173,-3.173,-3.1729,0,-3.138,-3.1392,-3.145,-3.1499,-3.1549,-3.1499,-3.1534,-3.1579,-3.1649,-3.1676,-3.1725,-3.1804,-3.1864,-3.1866,-3.1923,-3.1972,-3.1952,-3.1988,-3.1985,-3.1989,-3.1784,-3.1757,-3.2003,-3.2003,-3.2003,-3.2003,-3.2003,-3.2002,-3.1521,-3.1627,-3.1617,-3.1732,-3.1742,-3.182,-3.1844,-3.1874,-3.1895,-3.1985,-3.2036,-3.2035,-3.2052,-3.2109,-3.2163,-3.2161,-3.2186,-3.223,-3.2221,-3.203,-3.2003,-3.1977,-3.1952,-3.2235,-3.2235,-3.2421,-3.2423,-3.2424]},{"header":{"parameterUnit":"m.s-1","parameterCategory":1,"la1":30.2991,"la2":30.254,"lo1":-89.0895,"lo2":-89.0444,"dy":0.0017,"dx":0.0017,"nx":28,"ny":28,"refTime":"2024-11-29T03:00:00:Z","depth":0,"parameterNumber":3,"parameterNumberName":"V-component_of_WINDS"},"data":[0,0,0,0,0,0,0,0,0,0,0,0,0,0,0,0,0,0,0,0,0,0,0,0,0,0,0,0,0,0,0,0,0,0,0,0,0,0,0,0,0,0,0,0,0,0,0,0,0,0,0,0,0,0,0,0,0,0,-6.9308,-6.9309,0,-6.9429,-6.943,-6.9431,-6.9336,-6.9332,-6.9328,-6.9324,-6.9442,-6.9448,-6.9455,0,0,0,0,0,0,0,0,0,0,0,0,0,-6.8988,-6.8994,-6.9308,-6.931,-6.9311,-6.9428,-6.943,-6.9432,-6.9337,-6.9332,-6.9327,-6.9322,-6.9439,-6.9448,-6.9456,0,0,0,0,0,0,0,0,0,0,0,0,0,-6.912,-6.8997,-6.9308,-6.9278,-6.9276,-6.9428,-6.943,-6.9432,-6.9338,-6.9331,-6.9325,-6.932,-6.9437,-6.9447,-6.9457,-6.9643,0,0,-6.9489,-6.9493,0,0,0,0,0,0,0,0,-6.9112,-6.9131,-6.9281,-6.928,-6.9279,-6.9361,-6.936,-6.9503,-6.9339,-6.9314,-6.9324,-6.9317,-6.9419,-6.9431,-6.9467,-6.9648,-6.9653,-6.949,-6.9496,-6.95,-6.9503,0,0,0,0,0,0,0,-6.9103,-6.9126,-6.9355,-6.9283,-6.9282,-6.9256,-6.9268,-6.9387,-6.9399,-6.9316,-6.9309,-6.9325,-6.9418,-6.9457,-6.9469,-6.9655,-6.9489,-6.9499,-6.9505,-6.9509,-6.9992,-6.9998,0,0,0,0,0,0,-6.9098,-6.9119,-6.9352,-6.9359,-6.9179,-6.9267,-6.928,-6.9341,-6.9398,-6.9401,-6.933,-6.932,-6.9442,-6.9457,-6.9472,-6.9692,-6.95,-6.951,-6.9516,-6.9986,-6.9994,-7.0001,0,0,0,0,0,0,-6.9092,-6.912,-6.9347,-6.9237,-6.9264,-6.9279,-6.9348,-6.9346,-6.9385,-6.9409,-6.941,-6.9369,-6.9438,-6.9458,-6.9601,-6.9695,-6.9515,-6.9524,-6.9978,-6.9988,-6.9997,-7.0134,0,0,0,0,0,0,-6.9083,-6.9118,-6.9191,-6.924,-6.927,-6.9476,-6.9353,-6.9353,-6.9404,-6.9392,-6.9445,-6.9448,-6.9435,-6.9586,-6.9611,-6.9706,-6.9532,-6.9969,-6.9982,-6.9994,-7.0121,-7.0148,-7.017,0,0,0,0,0,-6.9072,-6.9224,-6.9195,-6.9224,-6.9362,-6.9482,-6.9499,-6.9483,-6.9412,-6.9484,-6.9498,-6.9446,-6.9681,-6.9601,-6.9629,-6.9728,-6.9963,-6.9979,-6.9993,-7.011,-7.0142,-7.0169,0,0,0,0,0,0,-6.9184,-6.923,-6.9198,-6.9371,-6.9424,-6.9465,-6.9556,-6.9517,-6.9589,-6.9575,-6.9549,-6.9562,-6.9712,-6.9734,-6.9645,-6.991,-6.981,-6.9831,-6.989,-6.9921,-6.9945,-6.9936,-6.9541,0,0,0,0,0,-6.9229,-6.9325,-6.9359,-6.9508,-6.9536,-6.9542,-6.9593,-6.9576,-6.9628,-6.9649,-6.9674,-6.9725,-6.981,-6.9866,-6.9946,-7.0124,-7.0132,-7.0205,-7.023,-7.025,-7.0268,-7.0361,-7.0393,-7.005,-7.0049,-7.0049,0,0,-6.9323,-6.936,-6.9421,-6.9531,-6.957,-6.9667,-6.9561,-6.9668,-6.9739,-6.9665,-6.9802,-6.9822,-6.9877,-7.0038,-7.011,-7.006,-7.0365,-7.0269,-7.0284,-7.0292,-7.038,-7.0412,-7.0441,-7.006,-7.0058,-7.0056,0,0,-6.9543,-6.9582,-6.971,-6.975,-6.981,-6.9813,-6.9844,-6.9891,-6.9902,-7.0039,-6.9985,-7.0067,-7.0215,-7.0256,-7.0296,-7.053,-7.0483,-7.0556,-7.0683,-7.0775,-7.0802,-7.0825,-7.0907,-7.0937,-7.0574,-7.0575,-7.0575,0,-6.9652,-6.9799,-6.978,-6.9892,-6.994,-6.9878,-7.0006,-7.0045,-7.0128,-7.0162,-7.0106,-7.0288,-7.0321,-7.0489,-7.0547,-7.0582,-7.0614,-7.055,-7.08,-7.0823,-7.0845,-7.0923,-7.0954,-7.0583,-7.0582,-7.0581,-7.0581,0,-6.9928,-7.003,-7.0126,-7.0208,-7.0267,-7.0387,-7.0383,-7.0445,-7.0422,-7.043,-7.0568,-7.0605,-7.069,-7.0729,-7.0707,-7.0894,-7.0862,-7.0804,-7.0703,-7.0887,-7.0959,-7.0989,-7.0595,-7.0592,-7.059,-7.0588,0,0,-7.0224,-7.0293,-7.0329,-7.0364,-7.0425,-7.0503,-7.0617,-7.0702,-7.0755,-7.0813,-7.0907,-7.1032,-7.0978,-7.1024,-7.1006,-7.1086,-7.1266,-7.1017,-7.1018,-7.1061,-7.1472,-7.1515,-7.155,-7.1236,-7.1242,-7.1246,-7.1467,0,-7.0446,-7.0649,-7.0634,-7.0823,-7.0916,-7.0858,-7.0957,-7.1004,-7.1013,-7.1091,-7.11,-7.1189,-7.1112,-7.1139,-7.1216,-7.1229,-7.1348,-7.1212,-7.1321,-7.1325,-7.1309,-7.1588,-7.1635,-7.1841,-7.1495,-7.15,-7.1504,0,-7.0733,-7.0802,-7.1002,-7.1047,-7.1085,-7.1176,-7.1251,-7.1327,-7.1377,-7.1378,-7.1429,-7.1396,-7.1509,-7.1406,-7.156,-7.1468,-7.1511,-7.1523,-7.1531,-7.154,-7.1425,-7.1604,-7.1907,-7.1938,-7.1548,-7.1545,-7.1541,0,-7.0927,-7.107,-7.1207,-7.124,-7.1296,-7.1361,-7.1387,-7.1431,-7.1482,-7.1547,-7.158,-7.1656,-7.1698,-7.1757,-7.1745,-7.1672,-7.1901,-7.1798,-7.1903,-7.1904,-7.1954,-7.1951,-7.2268,-7.1984,-7.1983,-7.1983,-7.1982,0,-7.1177,-7.1301,-7.1295,-7.138,-7.1516,-7.1496,-7.1631,-7.1649,-7.1689,-7.1773,-7.1727,-7.1807,-7.1787,-7.1866,-7.1857,-7.1984,-7.2004,-7.2006,-7.2002,-7.201,-7.201,-7.2037,-7.2022,-7.1991,-7.1989,-7.1987,-7.1986,0,-7.1416,-7.1418,-7.1564,-7.1605,-7.1618,-7.1717,-7.1751,-7.1829,-7.1834,-7.1942,-7.1966,-7.1974,-7.2064,-7.2058,-7.2159,-7.2153,-7.231,-7.2289,-7.2294,-7.2289,-7.2394,-7.2384,-7.274,-7.2784,-7.2472,-7.2475,-7.2478,0,-7.1575,-7.167,-7.1721,-7.1776,-7.1806,-7.1894,-7.1946,-7.193,-7.1985,-7.2049,-7.2119,-7.2205,-7.2273,-7.2419,-7.2432,-7.2508,-7.2489,-7.2608,-7.25,-7.2504,-7.2489,-7.2483,-7.2491,-7.2629,-7.2632,-7.2635,-7.2638,0,-7.1857,-7.1853,-7.1931,-7.2009,-7.2073,-7.2133,-7.2188,-7.2234,-7.2223,-7.2287,-7.238,-7.2433,-7.2536,-7.2621,-7.2694,-7.2717,-7.2675,-7.2672,-7.27,-7.2709,-7.2707,-7.2708,-7.2351,-7.2663,-7.2661,-7.2659,-7.2658,-7.2657,-7.206,-7.214,-7.2189,-7.2277,-7.2316,-7.2369,-7.2444,-7.2459,-7.2536,-7.262,-7.2605,-7.2708,-7.2752,-7.2846,-7.2877,-7.2955,-7.2912,-7.2953,-7.2964,-7.2974,-7.2985,-7.2695,-7.2968,-7.2968,-7.2967,-7.2966,-7.2966,0,-7.2338,-7.2366,-7.2447,-7.2526,-7.2594,-7.255,-7.2608,-7.2668,-7.276,-7.2806,-7.2874,-7.2979,-7.3061,-7.308,-7.3158,-7.3217,-7.3199,-7.3238,-7.3233,-7.3238,-7.302,-7.2988,-7.325,-7.325,-7.325,-7.325,-7.325,-7.325,-7.2491,-7.2624,-7.2625,-7.2776,-7.2802,-7.2904,-7.2941,-7.2987,-7.3024,-7.3144,-7.3213,-7.3225,-7.326,-7.3339,-7.3412,-7.3415,-7.3445,-7.3491,-7.3487,-7.3282,-7.3254,-7.3227,-7.3196,-7.3498,-7.3498,-7.3698,-7.37,-7.3701]}]]